Volver al catálogo

SL-12 R/B(2)

ActivoGEO
NORAD 11941·ROCKET BODY·🇷🇺 Russia

Lanzado Jul 18, 1978 desde Baikonur Cosmodrome

Loading…

TLE

ActualizadoSource: Space-Track

Época: Sep 14, 2026, 11:44 UTC

1 11941U 78073F   26257.48911942 -.00000078  00000-0  00000-0 0  9997
2 11941   6.2190 286.5157 0014137 181.7873 346.7526  0.97570254164172

Sigue SL-12 R/B(2) en tiempo real con AllMySat

Download on the App Store